Pocatello, ID

11:55 PM MDT on April 20, 2018 (GMT -0600)
Pocatello Regional

Weather History for KPIH - February, 2012

Change the Weather History Date:

Sunday, February 26, 2012

  Actual Average Record
Temperature  
Mean Temperature 27 °F 32 °F  
Max Temperature 34 °F 42 °F 62 °F (1950)
Min Temperature 20 °F 22 °F -11 °F (1960)
Degree Days  
Heating Degree Days 38 33  
Month to date heating degree days 861 962  
Since 1 July heating degree days 4872 5209  
Cooling Degree Days 0 0  
Month to date cooling degree days 0 0  
Year to date cooling degree days 0 0  
Moisture  
Dew Point 12 °F    
Average Humidity 59    
Maximum Humidity 84    
Minimum Humidity 33    
Precipitation  
Precipitation 0.00 in 0.04 in 0.27 in (1963)
Month to date precipitation 0.43 0.89  
Year to date precipitation 2.07 1.88  
Snow  
Snow 0.00 in - - ()
Month to date snowfall 2.6  
Since 1 July snowfall 10.4  
Snow Depth 0.00 in    
Sea Level Pressure  
Sea Level Pressure 30.16 in    
Wind  
Wind Speed 12 mph (SSW)    
Max Wind Speed 23 mph    
Max Gust Speed 29 mph    
Visibility 10 miles    
Events      
T = Trace of Precipitation, MM = Missing Value Source: NWS Daily Summary

Daily Weather History Graph

Daily Weather History Graph

Search for Another Location

Airport or City:

Astronomy

Feb. 26, 2012 Rise Set
Actual Time 7:11 AM MST 6:15 PM MST
Civil Twilight 6:43 AM MST 6:44 PM MST
Nautical Twilight 6:10 AM MST 7:16 PM MST
Astronomical Twilight 5:37 AM MST 7:49 PM MST
Moon 9:00 AM MST (2/26) 11:26 PM MST (2/26)
Length of Visible Light 12h 00m
Length of Day
11h 03m
Waxing Crescent, 21% of the Moon is Illuminated
Feb 26
Waxing Crescent
Feb 29
First Quarter
Mar 8
Full
Mar 14
Last Quarter
Mar 22
New

Hourly Weather History & Observations

Time (MST) Temp. Windchill Dew Point Humidity Pressure Visibility Wind Dir Wind Speed Gust Speed Precip Events Conditions
12:53 AM 21.9 °F 9.8 °F 17.1 °F 82% 30.14 in 10.0 mi SW 12.7 mph - N/A   Mostly Cloudy
1:53 AM 23.0 °F 11.7 °F 17.1 °F 78% 30.15 in 10.0 mi SW 11.5 mph - N/A   Overcast
2:35 AM 21.2 °F 8.3 °F 15.8 °F 80% 30.07 in 10.0 mi SW 13.8 mph - N/A   Scattered Clouds
2:53 AM 21.9 °F 9.8 °F 16.0 °F 78% 30.15 in 10.0 mi SW 12.7 mph 20.7 mph N/A   Mostly Cloudy
3:53 AM 21.9 °F 8.2 °F 14.0 °F 72% 30.16 in 10.0 mi SW 16.1 mph - N/A   Clear
4:53 AM 21.9 °F 8.2 °F 14.0 °F 72% 30.19 in 10.0 mi SW 16.1 mph - N/A   Partly Cloudy
5:53 AM 21.0 °F 8.6 °F 12.9 °F 71% 30.21 in 10.0 mi SW 12.7 mph - N/A   Clear
6:53 AM 19.4 °F 6.6 °F 12.2 °F 74% 30.11 in 10.0 mi SW 12.7 mph 18.4 mph N/A   Scattered Clouds
7:53 AM 21.0 °F 8.1 °F 12.9 °F 71% 30.25 in 10.0 mi SSW 13.8 mph - N/A   Scattered Clouds
8:53 AM 25.0 °F 12.2 °F 14.0 °F 63% 30.26 in 10.0 mi SW 16.1 mph 25.3 mph N/A   Scattered Clouds
9:53 AM 27.0 °F 12.8 °F 12.9 °F 56% 30.26 in 10.0 mi SW 21.9 mph 28.8 mph N/A   Scattered Clouds
10:53 AM 28.9 °F 16.1 °F 12.9 °F 51% 30.24 in 10.0 mi SW 19.6 mph 25.3 mph N/A   Scattered Clouds
11:53 AM 30.0 °F 17.5 °F 10.0 °F 43% 30.23 in 10.0 mi SW 19.6 mph 25.3 mph N/A   Mostly Cloudy
12:53 PM 30.0 °F 19.5 °F 8.1 °F 40% 30.22 in 10.0 mi SW 13.8 mph - N/A   Mostly Cloudy
1:53 PM 30.0 °F 20.0 °F 7.0 °F 38% 30.19 in 10.0 mi WSW 12.7 mph 20.7 mph N/A   Mostly Cloudy
2:53 PM 30.9 °F 21.7 °F 9.0 °F 40% 30.17 in 10.0 mi West 11.5 mph - N/A   Mostly Cloudy
3:53 PM 32.0 °F 24.8 °F 7.0 °F 35% 30.15 in 10.0 mi South 8.1 mph 17.3 mph N/A   Scattered Clouds
4:53 PM 32.0 °F 24.8 °F 8.1 °F 37% 30.14 in 10.0 mi South 8.1 mph - N/A   Scattered Clouds
5:53 PM 30.0 °F 23.2 °F 10.0 °F 43% 30.12 in 10.0 mi South 6.9 mph - N/A   Partly Cloudy
6:53 PM 26.1 °F 17.6 °F 10.9 °F 53% 30.14 in 10.0 mi SSE 8.1 mph - N/A   Clear
7:53 PM 21.0 °F 11.4 °F 12.0 °F 68% 30.15 in 10.0 mi SSE 8.1 mph - N/A   Clear
8:53 PM 24.1 °F 19.7 °F 12.0 °F 60% 30.11 in 10.0 mi ESE 3.5 mph - N/A   Clear
9:53 PM 21.9 °F 13.4 °F 12.9 °F 68% 30.09 in 10.0 mi ENE 6.9 mph - N/A   Clear
10:53 PM 24.1 °F 17.0 °F 12.0 °F 60% 30.05 in 10.0 mi ENE 5.8 mph - N/A   Clear
11:53 PM 21.9 °F 14.5 °F 12.9 °F 68% 30.03 in 10.0 mi North 5.8 mph - N/A   Clear